TimeEST,TemperatureF,Dew PointF,Humidity,Sea Level PressureIn,VisibilityMPH,Wind Direction,Wind SpeedMPH,Gust SpeedMPH,PrecipitationIn,Events,Conditions,WindDirDegrees,DateUTC
12:53 AM,35.1,25.0,67,30.00,10.0,North,-9999.0,-,N/A,,Overcast,0,2008-01-01 05:53:00
1:53 AM,35.1,26.1,70,30.02,10.0,North,-9999.0,-,N/A,,Overcast,0,2008-01-01 06:53:00
2:53 AM,34.0,25.0,70,30.04,10.0,North,-9999.0,-,N/A,,Overcast,0,2008-01-01 07:53:00
3:53 AM,33.1,21.9,64,30.07,10.0,North,-9999.0,-,N/A,,Mostly Cloudy,0,2008-01-01 08:53:00
4:53 AM,33.1,21.9,64,30.09,10.0,North,-9999.0,-,N/A,,Overcast,0,2008-01-01 09:53:00
5:04 AM,33.8,21.2,60,30.09,10.0,North,-9999.0,-,N/A,,Overcast,0,2008-01-01 10:04:00
5:53 AM,30.9,19.9,64,30.12,10.0,North,-9999.0,-,N/A,,Overcast,0,2008-01-01 10:53:00
6:53 AM,30.0,19.0,64,30.15,10.0,North,-9999.0,-,N/A,,Overcast,0,2008-01-01 11:53:00
7:53 AM,28.9,18.0,64,30.18,9.0,North,-9999.0,-,N/A,,Overcast,0,2008-01-01 12:53:00
8:53 AM,28.0,17.1,63,30.19,7.0,North,-9999.0,-,N/A,,Overcast,0,2008-01-01 13:53:00
9:53 AM,28.0,16.0,61,30.22,10.0,North,-9999.0,-,N/A,,Overcast,0,2008-01-01 14:53:00
10:00 AM,28.4,17.6,64,30.21,10.0,North,-9999.0,-,N/A,,Overcast,0,2008-01-01 15:00:00
10:53 AM,28.9,17.1,61,30.24,9.0,North,-9999.0,-,N/A,,Overcast,0,2008-01-01 15:53:00
11:53 AM,27.0,16.0,63,30.26,8.0,North,-9999.0,-,N/A,,Overcast,0,2008-01-01 16:53:00
12:00 PM,26.6,15.8,64,30.24,9.0,North,-9999.0,-,N/A,,Overcast,0,2008-01-01 17:00:00
12:53 PM,27.0,16.0,63,30.26,7.0,North,-9999.0,-,N/A,,Overcast,0,2008-01-01 17:53:00
1:53 PM,28.0,15.1,58,30.24,10.0,North,-9999.0,-,N/A,,Overcast,0,2008-01-01 18:53:00
2:53 PM,28.0,15.1,58,30.25,6.0,North,-9999.0,-,0.00,Snow,Light Snow,0,2008-01-01 19:53:00
3:00 PM,26.6,19.4,74,30.24,1.8,North,-9999.0,-,0.00,Snow,Light Snow,0,2008-01-01 20:00:00
3:07 PM,26.6,19.4,74,30.23,5.0,North,-9999.0,-,0.00,Snow,Light Snow,0,2008-01-01 20:07:00
3:53 PM,27.0,17.1,66,30.28,6.0,North,-9999.0,-,0.00,,Haze,0,2008-01-01 20:53:00
4:53 PM,26.1,10.9,53,30.31,10.0,North,-9999.0,-,N/A,,Overcast,0,2008-01-01 21:53:00
5:53 PM,24.1,10.0,55,30.33,10.0,North,-9999.0,-,0.00,,Overcast,0,2008-01-01 22:53:00
6:31 PM,21.2,15.8,80,30.33,5.0,North,-9999.0,-,0.00,Snow,Light Snow,0,2008-01-01 23:31:00
6:53 PM,21.9,14.0,72,30.36,5.0,North,-9999.0,-,0.00,,Haze,0,2008-01-01 23:53:00
7:53 PM,21.0,12.0,68,30.38,6.0,North,-9999.0,-,N/A,,Haze,0,2008-01-02 00:53:00
8:09 PM,21.2,12.2,68,30.35,2.5,North,-9999.0,-,0.00,Snow,Light Snow,0,2008-01-02 01:09:00
8:20 PM,19.4,12.2,74,30.36,4.0,North,-9999.0,-,0.00,Snow,Light Snow,0,2008-01-02 01:20:00
8:25 PM,19.4,14.0,80,30.36,1.8,North,-9999.0,-,0.00,Snow,Light Snow,0,2008-01-02 01:25:00
8:35 PM,19.4,14.0,80,30.36,3.0,North,-9999.0,-,0.00,Snow,Light Snow,0,2008-01-02 01:35:00
8:53 PM,19.9,10.0,65,30.38,10.0,North,-9999.0,-,0.00,,Mostly Cloudy,0,2008-01-02 01:53:00
9:02 PM,19.4,10.4,68,30.35,10.0,North,-9999.0,-,N/A,,Mostly Cloudy,0,2008-01-02 02:02:00
9:53 PM,19.9,8.1,60,30.38,10.0,WSW,15.0,21.9,N/A,,Overcast,250,2008-01-02 02:53:00
10:08 PM,19.4,8.6,63,30.36,6.0,North,-9999.0,-,0.00,Snow,Light Snow,0,2008-01-02 03:08:00
10:23 PM,17.6,10.4,73,30.37,1.8,North,-9999.0,-,0.00,Snow,Light Snow,0,2008-01-02 03:23:00
10:41 PM,17.6,12.2,79,30.37,2.0,North,-9999.0,-,0.00,Snow,Light Snow,0,2008-01-02 03:41:00
10:53 PM,18.0,10.9,74,30.39,1.5,North,-9999.0,-,0.00,Snow,Light Snow,0,2008-01-02 03:53:00
10:59 PM,17.6,10.4,73,30.37,3.0,North,-9999.0,-,0.00,Snow,Light Snow,0,2008-01-02 03:59:00
11:12 PM,17.6,8.6,68,30.37,8.0,North,-9999.0,-,0.00,,Overcast,0,2008-01-02 04:12:00
11:53 PM,17.1,6.1,62,30.41,9.0,North,-9999.0,-,0.00,,Overcast,0,2008-01-02 04:53:00